Asheville, NC

6:05 AM EDT on July 24, 2017 (GMT -0400)
Asheville Regional

Weather History for KAVL - January, 2013

Change the Weather History Date:

Sunday, January 13, 2013

  Actual Average Record
Temperature  
Mean Temperature 61 °F 37 °F  
Max Temperature 68 °F 47 °F 77 °F (1932)
Min Temperature 53 °F 26 °F -2 °F (1918)
Degree Days  
Heating Degree Days 4 28  
Month to date heating degree days 261 364  
Since 1 July heating degree days 1818 2025  
Cooling Degree Days 0 0  
Month to date cooling degree days 0 0  
Year to date cooling degree days 0 0  
Growing Degree Days 10 (Base 50)    
Moisture  
Dew Point 55 °F    
Average Humidity 84    
Maximum Humidity 100    
Minimum Humidity 68    
Precipitation  
Precipitation 0.07 in 0.12 in 2.27 in (1892)
Month to date precipitation 0.91 1.48  
Year to date precipitation 0.91 1.48  
Snow  
Snow 0.00 in 0.20 in 3.70 in (1968)
Month to date snowfall 0.0 1.6  
Since 1 July snowfall T 2.6  
Snow Depth 0.00 in    
Sea Level Pressure  
Sea Level Pressure 30.07 in    
Wind  
Wind Speed 9 mph (SSE)    
Max Wind Speed 21 mph    
Max Gust Speed 26 mph    
Visibility 10 miles    
Events Rain    
T = Trace of Precipitation, MM = Missing Value Source: NWS Daily Summary

Daily Weather History Graph

Daily Weather History Graph

Search for Another Location

Airport or City:

Trip Planner

Search our weather history database for the weather conditions in past years. The results will help you decide how hot, cold, wet, or windy it might be!

Date:

Astronomy

Jan. 13, 2013 Rise Set
Actual Time 7:39 AM EST 5:39 PM EST
Civil Twilight 7:11 AM EST 6:06 PM EST
Nautical Twilight 6:40 AM EST 6:38 PM EST
Astronomical Twilight 6:09 AM EST 7:08 PM EST
Moon 8:42 AM EST (1/13) 8:09 PM EST (1/13)
Length of Visible Light 10h 55m
Length of Day
10h 00m
Waxing Crescent, 5% of the Moon is Illuminated
Jan 13
Waxing Crescent
Jan 18
First Quarter
Jan 26
Full
Feb 3
Last Quarter
Feb 10
New

Hourly Weather History & Observations

Time (EST) Temp. Dew Point Humidity Pressure Visibility Wind Dir Wind Speed Gust Speed Precip Events Conditions
12:54 AM 55.0 °F 53.1 °F 93% 30.07 in 10.0 mi South 4.6 mph - N/A   Scattered Clouds
1:20 AM 55.4 °F 53.6 °F 94% 30.11 in 10.0 mi SE 5.8 mph - N/A   Mostly Cloudy
1:31 AM 57.2 °F 53.6 °F 88% 30.11 in 10.0 mi SE 4.6 mph - N/A   Scattered Clouds
1:54 AM 55.9 °F 54.0 °F 93% 30.06 in 10.0 mi South 5.8 mph - N/A   Partly Cloudy
2:13 AM 55.4 °F 53.6 °F 94% 30.11 in 10.0 mi SSE 4.6 mph - N/A   Mostly Cloudy
2:54 AM 57.0 °F 54.0 °F 89% 30.05 in 10.0 mi SSE 5.8 mph - N/A   Scattered Clouds
3:54 AM 57.0 °F 54.0 °F 89% 30.04 in 10.0 mi SSE 9.2 mph - N/A   Partly Cloudy
4:54 AM 59.0 °F 55.0 °F 87% 30.03 in 10.0 mi SSE 8.1 mph - N/A   Partly Cloudy
5:54 AM 60.1 °F 55.0 °F 83% 30.03 in 10.0 mi South 11.5 mph - N/A   Clear
6:54 AM 60.1 °F 55.0 °F 83% 30.04 in 10.0 mi Variable 3.5 mph - N/A   Clear
7:34 AM 62.6 °F 55.4 °F 77% 30.11 in 10.0 mi South 8.1 mph 17.3 mph N/A   Mostly Cloudy
7:44 AM 60.8 °F 55.4 °F 82% 30.11 in 10.0 mi South 9.2 mph - N/A   Mostly Cloudy
7:54 AM 61.0 °F 55.9 °F 83% 30.07 in 10.0 mi SSW 12.7 mph 21.9 mph N/A   Mostly Cloudy
8:54 AM 62.1 °F 55.9 °F 80% 30.10 in 10.0 mi SSW 15.0 mph 20.7 mph N/A   Clear
9:54 AM 64.0 °F 55.9 °F 75% 30.10 in 10.0 mi South 11.5 mph 21.9 mph N/A   Clear
10:54 AM 64.9 °F 55.0 °F 70% 30.09 in 10.0 mi SSW 12.7 mph 19.6 mph N/A   Clear
11:54 AM 66.9 °F 55.9 °F 68% 30.06 in 10.0 mi SSW 15.0 mph 23.0 mph N/A   Clear
12:54 PM 64.9 °F 55.9 °F 73% 30.06 in 10.0 mi South 11.5 mph 23.0 mph N/A   Scattered Clouds
1:54 PM 64.9 °F 55.9 °F 73% 30.03 in 10.0 mi South 12.7 mph 21.9 mph N/A   Mostly Cloudy
2:54 PM 64.9 °F 55.9 °F 73% 30.04 in 10.0 mi South 17.3 mph 21.9 mph N/A   Mostly Cloudy
3:54 PM 63.0 °F 55.9 °F 78% 30.06 in 10.0 mi South 10.4 mph - N/A   Overcast
4:54 PM 63.0 °F 55.0 °F 75% 30.07 in 10.0 mi South 9.2 mph - N/A   Overcast
5:24 PM 62.6 °F 55.4 °F 77% 30.10 in 10.0 mi SE 3.5 mph - N/A   Overcast
5:42 PM 62.6 °F 55.4 °F 77% 30.10 in 10.0 mi SSE 5.8 mph - N/A   Overcast
5:54 PM 61.0 °F 55.0 °F 81% 30.06 in 10.0 mi SSE 4.6 mph - N/A   Mostly Cloudy
6:07 PM 62.6 °F 55.4 °F 77% 30.10 in 10.0 mi Calm Calm - N/A   Overcast
6:54 PM 62.1 °F 55.0 °F 78% 30.06 in 10.0 mi Calm Calm - N/A   Overcast
7:54 PM 62.1 °F 55.0 °F 78% 30.04 in 10.0 mi ESE 4.6 mph - N/A   Overcast
8:43 PM 62.6 °F 55.4 °F 77% 30.09 in 10.0 mi SSE 4.6 mph - N/A   Overcast
8:54 PM 61.0 °F 55.9 °F 83% 30.04 in 10.0 mi SSE 3.5 mph - N/A   Overcast
9:54 PM 62.1 °F 57.0 °F 84% 30.03 in 10.0 mi SSE 5.8 mph - 0.00 in   Overcast
10:16 PM 62.6 °F 57.2 °F 82% 30.09 in 10.0 mi SSE 6.9 mph - N/A   Overcast
10:54 PM 62.1 °F 57.0 °F 84% 30.04 in 10.0 mi SSE 5.8 mph - N/A   Overcast
11:54 PM 60.1 °F 57.9 °F 93% 30.04 in 3.0 mi SE 4.6 mph - 0.06 in Rain Rain